sat.trackr.live / text

‹ back to catalog

STAR ONE C2

NORAD 32768 · 2008-018B

PAYLOAD ACTIVE UNKNOWN

§ Identity

Operator
Country
BRAZ
Launch date
2008-04-18
Launch site
FRGUI
Launch vehicle
Mass (kg)
RCS (m²)
10.76

Purposes: comms

External: N2YO · Heavens-Above · Gunter

§ Orbital elements

Epoch: 2026-09-20T03:30:38.801952Z

Period
1,436.07 min
Inclination
1.4757°
Eccentricity
0.0002451
Mean motion
1.00273618 rev/d
Perigee alt
35,775.7 km
Apogee alt
35,796.4 km
Semi-major
42,164.2 km
B*
0.0000e+0
RAAN
81.3764°
Arg perigee
86.3703°
Mean anomaly
178.9717°
Rev number
6,760

§ Raw data

STAR ONE C21 32768U 08018B   26263.14628243 -.00000281  00000+0  00000+0 0  99922 32768   1.4757  81.3764 0002451  86.3703 178.9717  1.00273618 67607

JSON: /api/v1/satellites/32768 · /tle

For live sub-satellite position, see the globe view (requires WebGL).

§ Visibility from observer

Set your observer location to see the next 7 days of passes ≥ 10°. The values pass through the URL so the page stays shareable.

No JS? Fill the form by hand. The geolocation button needs JavaScript.